N601JG GQNO-GMMH

Flight info

Callsign N601JG
Flight time 0h 51m
Altitude 37000
Route TANEB DCT BOTLO DCT LASAB
Aircraft CL60/M-SBDE1E2E3FGHIJ1J4J5J7M3RWXYZ/LB1V1D1

Departure

Time 2026-04-27 22:31
Airport Nouakchott–Oumtounsy International Airport (GQNO)

Arrival

Time 2026-04-27 23:23
Airport Dakhla Airport (GMMH)
Time Latitude Longitude Altitude Speed Heading
2026-04-27 22:13 18.29359 -15.95539 8 ft 0 kts 330°
2026-04-27 22:20 18.29360 -15.95540 8 ft 0 kts 327°
2026-04-27 22:21 18.29360 -15.95539 8 ft 0 kts 327°
2026-04-27 22:21 18.29360 -15.95540 8 ft 0 kts 327°
2026-04-27 22:23 18.29360 -15.95539 8 ft 0 kts 327°
2026-04-27 22:24 18.29360 -15.95540 8 ft 0 kts 327°
2026-04-27 22:25 18.29359 -15.95539 8 ft 1 kts 328°
2026-04-27 22:25 18.29347 -15.95532 8 ft 2 kts 330°
2026-04-27 22:25 18.29333 -15.95524 8 ft 2 kts 330°
2026-04-27 22:26 18.29320 -15.95516 8 ft 2 kts 330°
2026-04-27 22:26 18.29307 -15.95508 8 ft 2 kts 330°
2026-04-27 22:26 18.29294 -15.95501 8 ft 1 kts 330°
2026-04-27 22:26 18.29290 -15.95497 8 ft 1 kts 298°
2026-04-27 22:27 18.29290 -15.95490 8 ft 0 kts 242°
2026-04-27 22:27 18.29292 -15.95486 8 ft 0 kts 239°
2026-04-27 22:29 18.29292 -15.95487 8 ft 0 kts 239°
2026-04-27 22:29 18.29259 -15.95546 8 ft 15 kts 239°
2026-04-27 22:30 18.29210 -15.95636 10 ft 6 kts 237°
2026-04-27 22:30 18.29185 -15.95680 11 ft 7 kts 240°
2026-04-27 22:30 18.29150 -15.95741 11 ft 11 kts 239°
2026-04-27 22:30 18.29117 -15.95804 11 ft 6 kts 250°
2026-04-27 22:31 18.29153 -15.95846 11 ft 21 kts 332°
2026-04-27 22:31 18.29569 -15.96097 8 ft 118 kts 329°
2026-04-27 22:31 18.30445 -15.96648 408 ft 164 kts 328°
2026-04-27 22:31 18.31477 -15.97302 1222 ft 190 kts 330°
2026-04-27 22:32 18.32719 -15.98069 2052 ft 224 kts 331°
2026-04-27 22:32 18.34110 -15.98916 3149 ft 243 kts 330°
2026-04-27 22:32 18.35606 -15.99832 4385 ft 256 kts 328°
2026-04-27 22:32 18.37119 -16.00763 5776 ft 258 kts 326°
2026-04-27 22:33 18.38658 -16.01709 7014 ft 264 kts 325°
2026-04-27 22:33 18.40260 -16.02690 8079 ft 275 kts 324°
2026-04-27 22:33 18.41916 -16.03703 9160 ft 282 kts 324°
2026-04-27 22:33 18.43613 -16.04742 10222 ft 289 kts 324°
2026-04-27 22:34 18.45432 -16.05863 10698 ft 319 kts 324°
2026-04-27 22:34 18.47436 -16.07098 11159 ft 344 kts 325°
2026-04-27 22:34 18.49651 -16.08205 11971 ft 358 kts 334°
2026-04-27 22:34 18.52007 -16.09146 12888 ft 364 kts 335°
2026-04-27 22:35 18.54380 -16.10097 13786 ft 369 kts 335°
2026-04-27 22:35 18.56807 -16.11071 14651 ft 374 kts 335°
2026-04-27 22:35 18.59266 -16.12059 15521 ft 378 kts 335°
2026-04-27 22:35 18.61758 -16.13062 16346 ft 382 kts 336°
2026-04-27 22:36 18.64263 -16.14071 17128 ft 386 kts 336°
2026-04-27 22:36 18.66658 -16.15037 17841 ft 390 kts 336°
2026-04-27 22:36 18.69271 -16.16091 18621 ft 394 kts 335°
2026-04-27 22:36 18.71846 -16.17131 19379 ft 397 kts 335°
2026-04-27 22:37 18.74454 -16.18185 20138 ft 399 kts 335°
2026-04-27 22:37 18.77056 -16.19237 20867 ft 402 kts 335°
2026-04-27 22:37 18.79659 -16.20291 21535 ft 405 kts 334°
2026-04-27 22:37 18.82321 -16.21369 22205 ft 408 kts 334°
2026-04-27 22:38 18.84968 -16.22441 22856 ft 410 kts 334°
2026-04-27 22:38 18.87656 -16.23531 23514 ft 412 kts 334°
2026-04-27 22:38 18.90333 -16.24617 24156 ft 413 kts 334°
2026-04-27 22:38 18.93018 -16.25705 24840 ft 414 kts 334°
2026-04-27 22:39 18.95733 -16.26808 25417 ft 416 kts 334°
2026-04-27 22:39 18.98441 -16.27908 25973 ft 419 kts 334°
2026-04-27 22:39 19.01206 -16.29032 26528 ft 420 kts 334°
2026-04-27 22:39 19.03929 -16.30139 27074 ft 422 kts 334°
2026-04-27 22:40 19.06697 -16.31265 27596 ft 423 kts 334°
2026-04-27 22:40 19.09486 -16.32399 28084 ft 425 kts 334°
2026-04-27 22:40 19.12237 -16.33519 28527 ft 427 kts 334°
2026-04-27 22:40 19.15046 -16.34663 28983 ft 429 kts 333°
2026-04-27 22:41 19.17832 -16.35798 29373 ft 431 kts 333°
2026-04-27 22:41 19.20653 -16.36948 29712 ft 434 kts 333°
2026-04-27 22:41 19.23513 -16.38115 30031 ft 436 kts 333°
2026-04-27 22:41 19.26340 -16.39268 30320 ft 438 kts 333°
2026-04-27 22:42 19.29208 -16.40438 30612 ft 440 kts 333°
2026-04-27 22:42 19.32076 -16.41604 30936 ft 441 kts 333°
2026-04-27 22:42 19.35102 -16.42443 31287 ft 452 kts 345°
2026-04-27 22:42 19.38266 -16.42535 31661 ft 462 kts 355°
2026-04-27 22:43 19.41485 -16.42278 31967 ft 464 kts 356°
2026-04-27 22:43 19.44736 -16.42014 32284 ft 464 kts 356°
2026-04-27 22:43 19.47963 -16.41755 32574 ft 464 kts 356°
2026-04-27 22:43 19.51187 -16.41495 32918 ft 463 kts 355°
2026-04-27 22:44 19.54396 -16.41236 33308 ft 462 kts 355°
2026-04-27 22:44 19.57597 -16.40977 33752 ft 459 kts 355°
2026-04-27 22:44 19.60820 -16.40717 34134 ft 458 kts 355°
2026-04-27 22:44 19.64011 -16.40461 34470 ft 457 kts 355°
2026-04-27 22:45 19.67186 -16.40205 34811 ft 457 kts 355°
2026-04-27 22:45 19.70351 -16.39950 35142 ft 456 kts 355°
2026-04-27 22:45 19.73513 -16.39695 35463 ft 455 kts 355°
2026-04-27 22:45 19.76702 -16.39439 35738 ft 455 kts 355°
2026-04-27 22:46 19.79851 -16.39186 35986 ft 455 kts 355°
2026-04-27 22:46 19.83029 -16.38930 36267 ft 455 kts 355°
2026-04-27 22:46 19.86194 -16.38675 36469 ft 456 kts 355°
2026-04-27 22:46 19.89394 -16.38418 36702 ft 456 kts 354°
2026-04-27 22:47 19.92546 -16.38164 36905 ft 456 kts 354°
2026-04-27 22:47 19.98954 -16.37651 36983 ft 464 kts 355°
2026-04-27 22:48 20.05480 -16.37128 36985 ft 471 kts 355°
2026-04-27 22:48 20.12074 -16.36595 36980 ft 475 kts 355°
2026-04-27 22:49 20.18709 -16.36058 36984 ft 475 kts 355°
2026-04-27 22:49 20.25334 -16.35519 36979 ft 474 kts 355°
2026-04-27 22:50 20.31953 -16.34982 36986 ft 474 kts 355°
2026-04-27 22:50 20.38565 -16.34446 36985 ft 474 kts 354°
2026-04-27 22:51 20.45184 -16.33908 36983 ft 474 kts 354°
2026-04-27 22:51 20.51776 -16.33373 36986 ft 475 kts 355°
2026-04-27 22:52 20.58413 -16.32833 36988 ft 475 kts 354°
2026-04-27 22:52 20.64994 -16.32297 36991 ft 475 kts 354°
2026-04-27 22:53 20.71646 -16.31756 36990 ft 475 kts 355°
2026-04-27 22:53 20.78241 -16.31218 36993 ft 475 kts 355°
2026-04-27 22:54 20.84855 -16.30679 36999 ft 475 kts 354°
2026-04-27 22:54 20.91492 -16.30137 37003 ft 474 kts 354°
2026-04-27 22:55 20.98083 -16.29599 36996 ft 475 kts 354°
2026-04-27 22:55 21.04721 -16.29056 37001 ft 476 kts 354°
2026-04-27 22:56 21.11371 -16.28512 37003 ft 475 kts 354°
2026-04-27 22:56 21.17969 -16.27971 37003 ft 475 kts 354°
2026-04-27 22:57 21.24596 -16.27427 37010 ft 475 kts 355°
2026-04-27 22:57 21.31239 -16.26882 37006 ft 475 kts 354°
2026-04-27 22:58 21.37843 -16.26340 37012 ft 475 kts 355°
2026-04-27 22:58 21.44484 -16.25794 37015 ft 475 kts 355°
2026-04-27 22:59 21.51089 -16.25250 37016 ft 474 kts 355°
2026-04-27 22:59 21.57682 -16.24707 37020 ft 473 kts 355°
2026-04-27 23:00 21.67619 -16.23888 37015 ft 474 kts 355°
2026-04-27 23:00 21.74220 -16.23344 37010 ft 474 kts 355°
2026-04-27 23:01 21.77509 -16.23073 36725 ft 476 kts 355°
2026-04-27 23:01 21.80834 -16.22796 36162 ft 471 kts 355°
2026-04-27 23:01 21.84079 -16.22524 35577 ft 464 kts 355°
2026-04-27 23:01 21.87271 -16.22258 34991 ft 460 kts 356°
2026-04-27 23:02 21.90495 -16.21991 34384 ft 459 kts 356°
2026-04-27 23:02 21.93689 -16.21728 33781 ft 459 kts 356°
2026-04-27 23:02 21.96932 -16.21460 33163 ft 460 kts 357°
2026-04-27 23:02 22.00123 -16.21197 32527 ft 461 kts 357°
2026-04-27 23:03 22.03345 -16.20932 31940 ft 463 kts 358°
2026-04-27 23:03 22.06616 -16.20662 31306 ft 465 kts 358°
2026-04-27 23:03 22.09854 -16.20395 30673 ft 467 kts 358°
2026-04-27 23:03 22.13102 -16.20126 30077 ft 468 kts 359°
2026-04-27 23:04 22.16373 -16.19854 29441 ft 467 kts 359°
2026-04-27 23:04 22.19599 -16.19585 28818 ft 463 kts 359°
2026-04-27 23:04 22.22827 -16.19316 28198 ft 459 kts 359°
2026-04-27 23:04 22.25982 -16.19052 27601 ft 456 kts 359°
2026-04-27 23:05 22.29130 -16.18790 26995 ft 451 kts 359°
2026-04-27 23:05 22.32268 -16.18528 26408 ft 447 kts 359°
2026-04-27 23:05 22.35355 -16.18270 25820 ft 443 kts 359°
2026-04-27 23:05 22.38447 -16.18012 25222 ft 439 kts 359°
2026-04-27 23:06 22.41483 -16.17759 24643 ft 435 kts 359°
2026-04-27 23:06 22.44476 -16.17509 24075 ft 432 kts 359°
2026-04-27 23:06 22.47508 -16.17256 23493 ft 428 kts 359°
2026-04-27 23:06 22.50454 -16.17011 22927 ft 424 kts 359°
2026-04-27 23:07 22.53419 -16.16763 22363 ft 420 kts 359°
2026-04-27 23:07 22.56342 -16.16519 21800 ft 416 kts 359°
2026-04-27 23:07 22.59223 -16.16279 21251 ft 413 kts 360°
2026-04-27 23:07 22.62066 -16.16042 20706 ft 409 kts 360°
2026-04-27 23:08 22.64938 -16.15802 20154 ft 406 kts
2026-04-27 23:08 22.67744 -16.15567 19618 ft 403 kts
2026-04-27 23:08 22.70535 -16.15334 19085 ft 399 kts
2026-04-27 23:08 22.73305 -16.15103 18556 ft 396 kts
2026-04-27 23:09 22.76047 -16.14873 18030 ft 393 kts
2026-04-27 23:09 22.78756 -16.14647 17516 ft 389 kts
2026-04-27 23:09 22.81456 -16.14421 16996 ft 386 kts
2026-04-27 23:09 22.84141 -16.14197 16484 ft 383 kts
2026-04-27 23:10 22.86796 -16.13975 15972 ft 381 kts
2026-04-27 23:10 22.89432 -16.13754 15469 ft 379 kts
2026-04-27 23:10 22.92068 -16.13533 14967 ft 377 kts
2026-04-27 23:10 22.94665 -16.13316 14465 ft 374 kts
2026-04-27 23:11 22.97262 -16.13098 13972 ft 369 kts
2026-04-27 23:11 22.99826 -16.12882 13477 ft 362 kts
2026-04-27 23:11 23.02307 -16.12673 13006 ft 354 kts
2026-04-27 23:11 23.04759 -16.12466 12535 ft 347 kts
2026-04-27 23:12 23.07159 -16.12264 12074 ft 340 kts
2026-04-27 23:12 23.09508 -16.12066 11628 ft 333 kts
2026-04-27 23:12 23.11817 -16.11872 11184 ft 327 kts
2026-04-27 23:12 23.14060 -16.11683 10755 ft 321 kts
2026-04-27 23:13 23.16275 -16.11498 10331 ft 316 kts
2026-04-27 23:13 23.18477 -16.11313 9911 ft 311 kts
2026-04-27 23:13 23.20628 -16.11132 9497 ft 307 kts
2026-04-27 23:13 23.22742 -16.10955 9095 ft 302 kts
2026-04-27 23:14 23.24587 -16.10801 8743 ft 298 kts
2026-04-27 23:14 23.26655 -16.10627 8345 ft 294 kts
2026-04-27 23:14 23.28669 -16.10312 7965 ft 291 kts 14°
2026-04-27 23:14 23.30565 -16.09629 7595 ft 287 kts 17°
2026-04-27 23:15 23.32459 -16.08925 7214 ft 283 kts 17°
2026-04-27 23:15 23.34310 -16.08240 6840 ft 279 kts 17°
2026-04-27 23:15 23.36134 -16.07566 6470 ft 278 kts 17°
2026-04-27 23:15 23.37970 -16.06887 6102 ft 278 kts 17°
2026-04-27 23:16 23.39799 -16.06212 5731 ft 276 kts 18°
2026-04-27 23:16 23.41610 -16.05543 5368 ft 272 kts 18°
2026-04-27 23:16 23.43399 -16.04882 5009 ft 267 kts 18°
2026-04-27 23:16 23.45150 -16.04235 4655 ft 262 kts 18°
2026-04-27 23:17 23.46862 -16.03603 4310 ft 258 kts 18°
2026-04-27 23:17 23.48555 -16.02978 3972 ft 255 kts 18°
2026-04-27 23:17 23.50228 -16.02360 3633 ft 252 kts 19°
2026-04-27 23:17 23.51852 -16.01760 3308 ft 246 kts 19°
2026-04-27 23:18 23.53476 -16.01161 2981 ft 241 kts 19°
2026-04-27 23:18 23.55044 -16.00582 2665 ft 235 kts 19°
2026-04-27 23:18 23.56570 -16.00018 2349 ft 230 kts 19°
2026-04-27 23:18 23.58084 -15.99445 2004 ft 226 kts 20°
2026-04-27 23:19 23.59459 -15.98837 1946 ft 197 kts 22°
2026-04-27 23:19 23.60620 -15.98297 1970 ft 166 kts 23°
2026-04-27 23:19 23.61602 -15.97844 1917 ft 142 kts 22°
2026-04-27 23:19 23.62458 -15.97453 1734 ft 122 kts 22°
2026-04-27 23:20 23.63208 -15.97112 1649 ft 117 kts 22°
2026-04-27 23:20 23.63956 -15.96773 1440 ft 114 kts 21°
2026-04-27 23:20 23.64700 -15.96436 1299 ft 116 kts 21°
2026-04-27 23:20 23.65443 -15.96097 1148 ft 117 kts 22°
2026-04-27 23:21 23.66196 -15.95750 997 ft 117 kts 21°
2026-04-27 23:21 23.66955 -15.95403 833 ft 118 kts 22°
2026-04-27 23:21 23.67720 -15.95054 674 ft 119 kts 22°
2026-04-27 23:21 23.68482 -15.94707 519 ft 120 kts 22°
2026-04-27 23:22 23.69267 -15.94354 347 ft 121 kts 22°
2026-04-27 23:22 23.70044 -15.94004 183 ft 121 kts 21°
2026-04-27 23:22 23.70833 -15.93647 43 ft 117 kts 22°
2026-04-27 23:22 23.71455 -15.93366 38 ft 54 kts 23°
2026-04-27 23:23 23.71572 -15.93274 36 ft 8 kts 98°
2026-04-27 23:23 23.71541 -15.93188 35 ft 14 kts 112°
2026-04-27 23:23 23.71511 -15.93109 34 ft 13 kts 114°
2026-04-27 23:23 23.71478 -15.93025 34 ft 8 kts 112°
2026-04-27 23:24 23.71458 -15.92971 34 ft 6 kts 109°
2026-04-27 23:24 23.71465 -15.92928 34 ft 4 kts 32°
2026-04-27 23:24 23.71492 -15.92908 34 ft 4 kts 69°
2026-04-27 23:24 23.71497 -15.92898 34 ft 0 kts 64°